FW2126 Weather Reports


Display with metric or nautical units.
time (UTC)temp
F
wind
direction
speed
MPH
gust
MPH
rain 1hr
in
rain 24hr
in
rain mn
in
humidity
%
barometer
mb
20260904091510 70 188 3.0 5.0 0.00 0.00 0.00 69 1005.7
20260904090007 71 197 4.0 6.0 0.00 0.00 0.00 67 1005.7
20260904084503 72 199 5.0 7.0 0.00 0.00 0.00 65 1005.5
20260904083101 72 198 5.0 8.0 0.00 0.00 0.00 64 1005.6
20260904081559 73 171 6.0 11.0 0.00 0.00 0.00 63 1005.5
20260904080059 73 146 10.0 14.0 0.00 0.00 0.00 62 1005.7
20260904074553 74 163 6.0 11.0 0.00 0.00 0.00 60 1005.6
20260904073053 75 189 7.0 10.0 0.00 0.00 0.00 59 1005.7
20260904071548 75 163 8.0 13.0 0.00 0.00 0.00 59 1005.7
20260904070045 75 155 6.0 10.0 0.00 0.00 0.00 57 1005.9
20260904064545 76 150 7.0 15.0 0.00 0.00 0.00 56 1005.7
20260904063040 77 181 8.0 13.0 0.00 0.00 0.00 54 1005.8
20260904061543 77 186 7.0 11.0 0.00 0.00 0.00 52 1006.0
20260904060036 78 190 9.0 14.0 0.00 0.00 0.00 51 1006.0
20260904054537 78 204 10.0 18.0 0.00 0.00 0.00 51 1005.9
20260904053034 78 194 9.0 15.0 0.00 0.00 0.00 51 1005.9
20260904051533 78 178 10.0 17.0 0.00 0.00 0.00 52 1005.8
20260904050027 77 196 10.0 16.0 0.00 0.00 0.00 52 1005.6
20260904044538 76 186 9.0 12.0 0.00 0.00 0.00 54 1005.4
20260904043026 77 198 7.0 13.0 0.00 0.00 0.00 52 1005.1
20260904041624 78 13 9.0 12.0 0.00 0.00 0.00 51 1005.2
20260904040024 78 13 8.0 13.0 0.00 0.00 0.00 52 1005.2
20260904034524 78 13 7.0 12.0 0.00 0.00 0.00 52 1005.2
20260904033027 79 13 9.0 16.0 0.00 0.00 0.00 50 1005.1
20260904031523 79 12 9.0 15.0 0.00 0.00 0.00 50 1005.1
20260904030023 80 13 12.0 19.0 0.00 0.00 0.00 50 1004.7
20260904024522 80 12 13.0 20.0 0.00 0.00 0.00 49 1004.4
20260904023021 81 13 16.0 26.0 0.00 0.00 0.00 47 1004.2
20260904021520 82 12 15.0 21.0 0.00 0.00 0.00 46 1004.2
20260904020032 83 11 15.0 23.0 0.00 0.00 0.00 46 1004.1
20260904014519 84 12 15.0 21.0 0.00 0.00 0.00 44 1004.0
20260904013020 84 11 15.0 21.0 0.00 0.00 0.00 42 1003.9
20260904011517 86 12 16.0 23.0 0.00 0.00 0.00 43 1003.9
20260904010017 88 11 13.0 18.0 0.00 0.00 0.00 38 1003.7
20260904004516 90 12 12.0 22.0 0.00 0.00 0.00 33 1003.7
20260904003016 92 140 13.0 20.0 0.00 0.00 0.00 30 1003.6
20260904001514 93 146 9.0 21.0 0.00 0.00 0.00 29 1003.7
20260904000014 93 178 10.0 19.0 0.00 0.00 0.00 29 1003.6
20260903234513 93 190 10.0 19.0 0.00 0.00 0.00 30 1003.4
20260903233013 94 155 7.0 14.0 0.00 0.00 0.00 30 1003.3
20260903231512 94 136 9.0 19.0 0.00 0.00 0.00 29 1003.2
20260903230011 96 140 14.0 21.0 0.00 0.00 0.00 28 1003.2
20260903224510 97 128 15.0 21.0 0.00 0.00 0.00 27 1003.2
20260903223010 96 146 17.0 27.0 0.00 0.00 0.00 29 1003.4
20260903221507 101 61 11.0 17.0 0.00 0.00 0.00 22 1003.5
20260903220006 99 317 2.0 16.0 0.00 0.00 0.00 24 1003.6
20260903214503 101 319 3.0 10.0 0.00 0.00 0.00 22 1003.9
20260903213002 100 319 7.0 9.0 0.00 0.00 0.00 24 1004.1
20260903211615 101 5 3.0 8.0 0.00 0.00 0.00 23 1004.2
20260903210059 98 40 4.0 7.0 0.00 0.00 0.00 25 1004.3
20260903204602 96 15 8.0 13.0 0.00 0.00 0.00 26 1004.4
20260903203055 94 30 9.0 19.0 0.00 0.00 0.00 35 1004.6
20260903201554 97 231 1.0 7.0 0.00 0.00 0.00 25 1004.6
20260903200058 97 240 7.0 11.0 0.00 0.00 0.00 24 1004.8
20260903194554 101 136 5.0 9.0 0.00 0.00 0.00 23 1004.9
20260903193048 98 19 4.0 11.0 0.00 0.00 0.00 25 1005.2
20260903191555 99 236 5.0 11.0 0.00 0.00 0.00 24 1005.5
20260903190041 98 285 8.0 14.0 0.00 0.00 0.00 25 1005.9
20260903184540 98 284 6.0 14.0 0.00 0.00 0.00 24 1006.1
20260903183051 98 267 7.0 14.0 0.00 0.00 0.00 24 1006.3
20260903181531 97 252 9.0 13.0 0.00 0.00 0.00 25 1006.4
20260903180036 97 275 6.0 14.0 0.00 0.00 0.00 27 1006.6
20260903174528 96 294 7.0 13.0 0.00 0.00 0.00 26 1006.6
20260903173023 94 297 9.0 17.0 0.00 0.00 0.00 29 1006.8
20260903171526 93 284 11.0 18.0 0.00 0.00 0.00 32 1006.9
20260903170017 93 281 11.0 19.0 0.00 0.00 0.00 35 1007.0
20260903164514 92 279 12.0 18.0 0.00 0.00 0.00 36 1006.9
20260903163016 89 265 13.0 19.0 0.00 0.00 0.00 39 1007.0
20260903161511 89 266 12.0 19.0 0.00 0.00 0.00 39 1007.0
20260903160003 88 247 14.0 25.0 0.00 0.00 0.00 41 1007.0
20260903154601 86 242 15.0 20.0 0.00 0.00 0.00 43 1007.0
20260903153058 84 237 15.0 20.0 0.00 0.00 0.00 45 1007.0
20260903151553 83 225 15.0 17.0 0.00 0.00 0.00 46 1007.1
20260903150052 83 223 12.0 19.0 0.00 0.00 0.00 47 1007.3
20260903144652 81 16 12.0 20.0 0.00 0.00 0.00 48 1007.3
20260903143046 81 16 13.0 19.0 0.00 0.00 0.00 50 1007.7
20260903141542 79 16 11.0 15.0 0.00 0.00 0.00 53 1007.6
20260903140039 77 18 10.0 14.0 0.00 0.00 0.00 55 1007.5
20260903134543 75 15 7.0 11.0 0.00 0.00 0.00 59 1007.5
20260903133046 73 15 8.0 10.0 0.00 0.00 0.00 61 1007.3
20260903131539 71 14 8.0 11.0 0.00 0.00 0.00 64 1007.1
20260903130034 69 14 6.0 10.0 0.00 0.00 0.00 66 1007.1
20260903124548 68 14 4.0 8.0 0.00 0.00 0.00 68 1007.2
20260903123030 68 14 3.0 6.0 0.00 0.00 0.00 67 1006.9
20260903121541 70 13 4.0 8.0 0.00 0.00 0.00 63 1007.0
20260903120027 72 15 7.0 10.0 0.00 0.00 0.00 62 1007.1
20260903114526 72 14 5.0 10.0 0.00 0.00 0.00 62 1007.0
20260903113029 72 14 7.0 10.0 0.00 0.00 0.00 62 1007.0
20260903111523 71 14 4.0 8.0 0.00 0.00 0.00 64 1007.1
20260903110023 72 14 4.0 8.0 0.00 0.00 0.00 63 1007.1
20260903104526 71 14 3.0 7.0 0.00 0.00 0.00 65 1007.2
20260903103022 71 13 3.0 5.0 0.00 0.00 0.00 66 1007.2
20260903101529 71 13 3.0 4.0 0.00 0.00 0.00 66 1007.2
20260903100025 71 14 4.0 8.0 0.00 0.00 0.00 66 1007.1
20260903094519 71 13 4.0 8.0 0.00 0.00 0.00 67 1007.3
20260903093019 70 13 4.0 8.0 0.00 0.00 0.00 69 1007.4